Погода в Арекипе

Перу     16°24′38″S   71°30′47″W
темп.,
°C
ветер,
м/с
пор.,
м/с
влажн.,
%
обл.,
%
осадки,
мм/ч
давл.,
гПа
погр.,
м
9 мая, вс
вс901:00+12з014659 0.0 101610
04:00+11ююв11485 0.0 101610
07:00+14в11440 0.0 101751
10:00+18зюз32324 0.0 1015807
13:00+20зюз532841 0.0 10121323
16:00+18з323517 0.0 1012871
19:00+15зюз114583 0.0 1015168
22:00+15юв004743 0.0 101536
10 мая, пн
пн1001:00+13в11545 0.0 101511
04:00+12в11584 0.0 101410
07:00+14вюв11483 0.0 101648
10:00+18зюз21350 0.0 1015908
13:00+21зюз53295 0.1 10111690
16:00+18з53341 0.0 1011958
19:00+17ююз2239100 0.0 1014279
22:00+16ююз114053 0.0 1015124
11 мая, вт
вт1101:00+14вюв11465 0.1 101512
04:00+13в114920 0.1 101510
07:00+15в11404 0.2 101541
10:00+19зюз42295 0.0 1013865
13:00+19з53315 0.0 10111300
16:00+16з53425 0.0 1012912
19:00+13ссв1254100 0.0 1016224
22:00+13сз115859 0.0 1016116
12 мая, ср
ср1201:00+12св116187 0.0 101535
04:00+11ссз1164100 0.0 101525
07:00+12сз1158100 0.0 1017102
10:00+16зюз3241100 0.0 1016737
13:00+17зюз433273 0.0 10141151
16:00+16з3229100 0.0 10141101
19:00+15ссз113195 0.0 1017236
22:00+15св2231100 0.0 101727
13 мая, чт
чт1301:00+14ссз113394 0.0 101613
04:00+13вюв013825 0.0 101510
07:00+14вюв003534 0.0 101732
10:00+18зюз322838 0.0 1016957
13:00+19зюз632636 0.0 10141519
16:00+17з42255 0.0 1014976
19:00+14з10323 0.0 101797
22:00+13юв11384 0.0 101811